Regional Weather Roundup
Issued by NWS

Home | Current Version | Previous Version | Graphics & Text | Print | Product List | Glossary Off
Versions: 1 2 3 4 5 6 7 8 9 10 11 12 13 14 15 16 17 18 19 20 21 22 23 24 25 26 27 28 29 30 31 32 33 34 35 36 37 38 39 40 41 42 43 44 45 46 47 48 49 50

000
ASUS43 KLSX 021607
RWRMO

WEATHER SUMMARY FOR MISSOURI
NATIONAL WEATHER SERVICE SPRINGFIELD MO
1100 AM CDT WED SEP 02 2015

NOTE: "FAIR" INDICATES FEW OR NO CLOUDS BELOW 12,000 FEET WITH NO
       SIGNIFICANT WEATHER AND/OR OBSTRUCTIONS TO VISIBILITY.
       CURRENT SKY AND/OR WEATHER CONDITIONS ARE NOT AVAILABLE FOR
       CHILLICOTHE AND FARMINGTON.

MOZ001>031-035>038-043-044-053-054-021700-
...NORTHERN AND WESTERN MISSOURI...

CITY           SKY/WX    TMP DP  RH WIND       PRES   REMARKS
KANSAS CTY INT LGT RAIN  71  69  93 SE12      30.07F
KANSAS C DTWN  LGT RAIN  76  68  76 E9        30.06F
LEE`S SUMMIT   PTSUNNY   78  68  71 CALM      30.10S
ST JOSEPH      CLOUDY    73  71  93 S10       30.04R
CHILLICOTHE      N/A     72  70  93 SE5       30.10F
KIRKSVILLE     CLOUDY    75  68  78 W6        30.11S

$$
MOZ066>068-077>081-088>096-101>105-021700-
...SOUTHWEST MISSOURI...

CITY           SKY/WX    TMP DP  RH WIND       PRES   REMARKS
SPRINGFIELD    SUNNY     82  69  64 SW12      30.12S
JOPLIN         SUNNY     83  69  62 S14       30.09S

$$
MOZ032>034-039>042-045>050-055>058-069>072-021700-
...CENTRAL MISSOURI...

CITY           SKY/WX    TMP DP  RH WIND       PRES   REMARKS
COLUMBIA       MOSUNNY   83  70  64 W12       30.12R
JEFFERSON CITY MOSUNNY   84  68  58 W6        30.10S
ROLLA          SUNNY     84  68  58 W6        30.12S
SEDALIA        CLOUDY    84  69  60 SW10      30.12R
WHITEMAN AFB   PTSUNNY   81  68  66 SW10      30.09S
WARRENSBURG    PTSUNNY   81  68  65 S6        30.09F
OSAGE BEACH    SUNNY     84  68  58 W8        30.12S

$$
MOZ051-052-059>065-021700-
...EAST CENTRAL MISSOURI...

CITY           SKY/WX    TMP DP  RH WIND       PRES   REMARKS
ST LOUIS INTL  MOSUNNY   89  68  49 W5        30.11S HX  93
SPIRIT OF STL  MOSUNNY   86  71  60 W10       30.09S HX  91
ST CHARLES     SUNNY     85  70  60 SW8       30.09F

$$
MOZ072>076-082>087-097>100-106>115-021700-
...SOUTH CENTRAL AND SOUTHEAST MISSOURI...

CITY           SKY/WX    TMP DP  RH WIND       PRES   REMARKS
CAPE GIRARDEAU SUNNY     85  72  65 SW5       30.11F HX  91
FARMINGTON     SUNNY     82  72  69 S6        30.16S
POPLAR BLUFF     N/A     84  71  65 S3        30.11S
WEST PLAINS    SUNNY     82  67  60 SW6       30.15F

$$



USA.gov is the U.S. government's official web portal to all federal, state and local government web resources and services.